TimeBST,TemperatureF,Dew PointF,Humidity,Sea Level PressureIn,VisibilityMPH,Wind Direction,Wind SpeedMPH,Gust SpeedMPH,PrecipitationIn,Events,Conditions,WindDirDegrees,DateUTC
12:20 AM,55.4,55.4,100,30.21,3.7,SSW,3.5,-,N/A,,Light Drizzle,200,2011-10-01 23:20:00
12:50 AM,55.4,55.4,100,30.21,3.7,Calm,Calm,-,N/A,,Light Drizzle,0,2011-10-01 23:50:00
1:20 AM,55.4,55.4,100,30.18,4.3,Variable,2.3,-,N/A,,Light Drizzle,0,2011-10-02 00:20:00
1:50 AM,55.4,55.4,100,30.18,4.3,Calm,Calm,-,N/A,,Light Drizzle,0,2011-10-02 00:50:00
2:20 AM,55.4,55.4,100,30.18,3.7,North,2.3,-,N/A,,Light Drizzle,350,2011-10-02 01:20:00
2:50 AM,57.2,55.4,94,30.21,1.0,West,2.3,-,N/A,Rain,Rain,260,2011-10-02 01:50:00
3:20 AM,57.2,57.2,100,30.21,1.0,ENE,2.3,-,N/A,,Heavy Drizzle,60,2011-10-02 02:20:00
3:50 AM,57.2,55.4,94,30.18,1.2,ENE,3.5,-,N/A,Rain,Light Rain,70,2011-10-02 02:50:00
4:20 AM,57.2,55.4,94,30.18,2.5,East,3.5,-,N/A,,Mostly Cloudy,100,2011-10-02 03:20:00
4:50 AM,57.2,57.2,100,30.15,6.2,SE,5.8,-,N/A,,Scattered Clouds,130,2011-10-02 03:50:00
5:20 AM,57.2,57.2,100,30.15,5.0,North,3.5,-,N/A,,Mostly Cloudy,360,2011-10-02 04:20:00
5:50 AM,57.2,57.2,100,30.15,2.5,North,4.6,-,N/A,,Mostly Cloudy,10,2011-10-02 04:50:00
6:20 AM,55.4,55.4,100,30.15,1.2,ENE,5.8,-,N/A,Rain,Light Rain,60,2011-10-02 05:20:00
6:50 AM,55.4,55.4,100,30.15,1.2,NE,8.1,-,N/A,Rain,Light Rain,50,2011-10-02 05:50:00
7:20 AM,55.4,55.4,100,30.12,-9999.0,ENE,9.2,-,N/A,Rain,Rain,60,2011-10-02 06:20:00
7:50 AM,55.4,55.4,100,30.12,1.9,ENE,6.9,-,N/A,Rain,Rain,60,2011-10-02 06:50:00
8:20 AM,55.4,55.4,100,30.12,2.2,NE,5.8,-,N/A,Rain,Rain,50,2011-10-02 07:20:00
8:50 AM,55.4,55.4,100,30.12,1.9,NE,6.9,-,N/A,Rain,Rain,50,2011-10-02 07:50:00
9:20 AM,55.4,55.4,100,30.12,2.5,ENE,8.1,-,N/A,Rain,Rain,60,2011-10-02 08:20:00
9:50 AM,55.4,55.4,100,30.09,1.9,ENE,9.2,-,N/A,Rain,Rain,60,2011-10-02 08:50:00
10:20 AM,55.4,55.4,100,30.09,1.9,NE,9.2,-,N/A,Rain,Light Rain,50,2011-10-02 09:20:00
10:50 AM,55.4,55.4,100,30.09,2.5,NE,6.9,-,N/A,Rain,Light Rain,50,2011-10-02 09:50:00
11:20 AM,55.4,55.4,100,30.09,1.2,NE,5.8,-,N/A,Rain,Light Rain,40,2011-10-02 10:20:00
11:50 AM,55.4,55.4,100,30.09,0.9,ENE,5.8,-,N/A,Rain,Light Rain,60,2011-10-02 10:50:00
12:20 PM,55.4,55.4,100,30.06,1.2,NE,4.6,-,N/A,,Light Drizzle,50,2011-10-02 11:20:00
12:50 PM,55.4,55.4,100,30.06,1.2,Variable,2.3,-,N/A,,Light Drizzle,0,2011-10-02 11:50:00
1:20 PM,57.2,57.2,100,30.06,1.6,Variable,2.3,-,N/A,,Light Drizzle,0,2011-10-02 12:20:00
1:50 PM,57.2,57.2,100,30.06,6.2,Variable,3.5,-,N/A,,Mostly Cloudy,0,2011-10-02 12:50:00
2:20 PM,60.8,59.0,94,30.04,6.2,WSW,6.9,-,N/A,,Mostly Cloudy,250,2011-10-02 13:20:00
2:50 PM,60.8,59.0,94,30.04,6.2,WSW,8.1,-,N/A,,Mostly Cloudy,240,2011-10-02 13:50:00
3:20 PM,60.8,59.0,94,30.04,6.2,WSW,8.1,-,N/A,,Mostly Cloudy,250,2011-10-02 14:20:00
3:50 PM,60.8,57.2,88,30.04,6.2,West,6.9,-,N/A,,Mostly Cloudy,260,2011-10-02 14:50:00
4:20 PM,60.8,57.2,88,30.04,6.2,WSW,8.1,-,N/A,,Mostly Cloudy,250,2011-10-02 15:20:00
4:50 PM,60.8,57.2,88,30.04,6.2,WSW,8.1,-,N/A,,Mostly Cloudy,250,2011-10-02 15:50:00
5:20 PM,60.8,57.2,88,30.04,6.2,SW,10.4,-,N/A,,Mostly Cloudy,230,2011-10-02 16:20:00
5:50 PM,59.0,55.4,88,30.04,6.2,WSW,9.2,-,N/A,,Mostly Cloudy,240,2011-10-02 16:50:00
6:20 PM,59.0,55.4,88,30.01,6.2,WSW,8.1,-,N/A,,Mostly Cloudy,240,2011-10-02 17:20:00
6:50 PM,59.0,55.4,88,30.04,6.2,WSW,6.9,-,N/A,,Mostly Cloudy,250,2011-10-02 17:50:00
7:20 PM,59.0,55.4,88,30.04,6.2,SW,9.2,-,N/A,,Mostly Cloudy,230,2011-10-02 18:20:00
7:50 PM,57.2,55.4,94,30.01,6.2,WSW,8.1,-,N/A,,Mostly Cloudy,250,2011-10-02 18:50:00
8:20 PM,57.2,55.4,94,30.01,6.2,SW,6.9,-,N/A,,Mostly Cloudy,230,2011-10-02 19:20:00
8:50 PM,57.2,55.4,94,30.01,6.2,WSW,6.9,-,N/A,,Mostly Cloudy,250,2011-10-02 19:50:00
9:20 PM,57.2,53.6,88,30.01,6.2,WSW,5.8,-,N/A,,Mostly Cloudy,250,2011-10-02 20:20:00
9:50 PM,57.2,55.4,94,30.01,6.2,WSW,6.9,-,N/A,,Mostly Cloudy,250,2011-10-02 20:50:00
10:20 PM,57.2,55.4,94,30.01,6.2,WSW,6.9,-,N/A,,Light Drizzle,250,2011-10-02 21:20:00
10:50 PM,55.4,55.4,100,30.01,6.2,WSW,5.8,-,N/A,,Light Drizzle,240,2011-10-02 21:50:00
11:20 PM,55.4,55.4,100,30.01,6.2,WSW,5.8,-,N/A,,Mostly Cloudy,240,2011-10-02 22:20:00
11:50 PM,55.4,53.6,94,29.98,6.2,SW,8.1,-,N/A,,Mostly Cloudy,230,2011-10-02 22:50:00